Regional Weather Roundup
Issued by NWS

Home | Current Version | Previous Version | Graphics & Text | Print | Product List | Glossary On
Versions: 1 2 3 4 5 6 7 8 9 10 11 12 13 14 15 16 17 18 19 20 21 22 23 24 25 26 27 28 29 30 31 32 33 34 35 36 37 38 39 40 41 42 43 44 45 46 47 48 49 50
557
ASUS43 KLSX 290810
RWRMO

WEATHER SUMMARY FOR MISSOURI
NATIONAL WEATHER SERVICE SPRINGFIELD MO
300 AM CDT FRI APR 29 2016

NOTE: "FAIR" INDICATES FEW OR NO CLOUDS BELOW 12,000 FEET WITH NO
       SIGNIFICANT WEATHER AND/OR OBSTRUCTIONS TO VISIBILITY.
       CURRENT SKY AND/OR WEATHER CONDITIONS ARE NOT AVAILABLE FOR
       CHILLICOTHE AND FARMINGTON.

MOZ001>031-035>038-043-044-053-054-290900-
...NORTHERN AND WESTERN MISSOURI...

CITY           SKY/WX    TMP DP  RH WIND       PRES   REMARKS
KANSAS CTY INT LGT RAIN  49  45  86 N9        30.09S
KANSAS C DTWN  CLOUDY    52  45  77 N8        30.08F
LEE`S SUMMIT   CLOUDY    50  46  86 N6        30.09S
ST JOSEPH      CLOUDY    50  42  74 NW6       30.14R
CHILLICOTHE      N/A     48  45  89 CALM      30.11R
KIRKSVILLE     PTCLDY    47  43  86 NW6       30.07S

$$
MOZ066>068-077>081-088>096-101>105-290900-
...SOUTHWEST MISSOURI...

CITY           SKY/WX    TMP DP  RH WIND       PRES   REMARKS
SPRINGFIELD    MOCLDY    56  48  74 N10       30.01R
JOPLIN         CLOUDY    55  51  86 NE13G22   30.01S

$$
MOZ032>034-039>042-045>050-055>058-069>072-290900-
...CENTRAL MISSOURI...

CITY           SKY/WX    TMP DP  RH WIND       PRES   REMARKS
COLUMBIA       CLOUDY    51  48  89 NW5       30.06R
JEFFERSON CITY MOCLDY    51  48  89 CALM      30.06S
ROLLA          CLOUDY    51  48  89 N3        30.04S
SEDALIA        CLOUDY    52  47  83 N5        30.09R
WHITEMAN AFB   CLOUDY    50  50  99 N5        30.07S
WARRENSBURG    CLOUDY    50  46  87 N7        30.08S
OSAGE BEACH    CLOUDY    52  41  66 N3        30.07R

$$
MOZ051-052-059>065-290900-
...EAST CENTRAL MISSOURI...

CITY           SKY/WX    TMP DP  RH WIND       PRES   REMARKS
ST LOUIS INTL  MOCLDY    56  49  77 W6        30.04S
SPIRIT OF STL  CLOUDY    52  51  97 W3        30.04R
ST CHARLES     CLOUDY    54  52  93 SW3       30.03S

$$
MOZ072>076-082>087-097>100-106>115-290900-
...SOUTH CENTRAL AND SOUTHEAST MISSOURI...

CITY           SKY/WX    TMP DP  RH WIND       PRES   REMARKS
CAPE GIRARDEAU CLOUDY    58  52  80 N7        30.00S
FARMINGTON     MOCLDY    52  49  89 CALM      30.04S
POPLAR BLUFF   CLOUDY    59  50  72 N9        29.99R
WEST PLAINS    CLOUDY    53  45  74 NE7       30.02R

$$




USA.gov is the U.S. government's official web portal to all federal, state and local government web resources and services.